Weather History for Torrington, WY

Change the Weather History Date:

Friday, December 7, 2012

  Actual Average Record
Temperature  
Mean Temperature 30 °F 28 °F  
Max Temperature 40 °F 41 °F 63 °F (2003)
Min Temperature 19 °F 15 °F -19 °F (2005)
Degree Days  
Heating Degree Days 35 37  
Month to date heating degree days 142 256  
Since 1 July heating degree days 1485 1839  
Cooling Degree Days 0 0  
Month to date cooling degree days 0 0  
Year to date cooling degree days 1021 678  
Moisture  
Dew Point 21 °F    
Average Humidity 66    
Maximum Humidity 88    
Minimum Humidity 44    
Precipitation  
Precipitation 0.00 in 0.01 in 0.34 in (2007)
Month to date precipitation T 0.10  
Year to date precipitation 7.00 13.94  
Sea Level Pressure  
Sea Level Pressure 29.91 in    
Wind  
Wind Speed 7 mph (West)    
Max Wind Speed 17 mph    
Max Gust Speed 21 mph    
Visibility 10 miles    
Events      
T = Trace of Precipitation, MM = Missing Value Source: NWS Daily Summary

Daily Weather History Graph

Daily Weather History Graph

Search for Another Location

Airport:

Trip Planner

Search our weather history database for the weather conditions in past years. The results will help you decide how hot, cold, wet, or windy it might be!

Date:

Astronomy

Dec. 07, 2012 Rise Set
Actual Time 7:11 AM MST 4:24 PM MST
Civil Twilight 6:40 AM MST 4:56 PM MST
Nautical Twilight 6:05 AM MST 5:31 PM MST
Astronomical Twilight 5:31 AM MST 6:05 PM MST
Moon 12:27 AM MST (12/7) 12:28 PM MST (12/7)
Length of Visible Light 10h 16m
Length of Day
9h 13m
Last Quarter, 38% of the Moon is Illuminated
Dec 7
Last Quarter
Dec 13
New
Dec 19
First Quarter
Dec 28
Full
Jan 4
Last Quarter

Hourly Weather History & Observations

Time (MST) Temp. Windchill Dew Point Humidity Pressure Visibility Wind Dir Wind Speed Gust Speed Precip Events Conditions
12:53 AM 35.1 °F 27.9 °F 21.0 °F 57% 29.80 in 10.0 mi East 9.2 mph - N/A   Partly Cloudy
1:53 AM 35.1 °F 27.9 °F 21.0 °F 57% 29.78 in 10.0 mi SSE 9.2 mph 17.3 mph N/A   Partly Cloudy
2:53 AM 35.1 °F 26.9 °F 19.9 °F 54% 29.77 in 10.0 mi SSW 11.5 mph - N/A   Clear
3:53 AM 34.0 °F - 21.0 °F 59% 29.76 in 10.0 mi Calm Calm - N/A   Clear
4:53 AM 30.0 °F 19.1 °F 21.0 °F 69% 29.82 in 10.0 mi NNW 15.0 mph 23.0 mph N/A   Clear
5:53 AM 30.9 °F 20.7 °F 23.0 °F 72% 29.87 in 10.0 mi NW 13.8 mph - N/A   Overcast
7:53 AM 30.9 °F 26.2 °F 23.0 °F 72% 29.95 in 10.0 mi West 4.6 mph - N/A   Overcast
8:53 AM 32.0 °F 25.6 °F 24.1 °F 73% 29.97 in 10.0 mi WNW 6.9 mph - N/A   Overcast
9:53 AM 33.1 °F 27.7 °F 23.0 °F 66% 29.98 in 10.0 mi WNW 5.8 mph - N/A   Overcast
10:53 AM 36.0 °F 29.0 °F 23.0 °F 59% 29.94 in 10.0 mi SW 9.2 mph - N/A   Overcast
11:53 AM 39.0 °F 31.4 °F 19.9 °F 46% 29.92 in 10.0 mi WNW 12.7 mph - N/A   Overcast
12:53 PM 39.0 °F 32.8 °F 21.0 °F 49% 29.90 in 10.0 mi West 9.2 mph - N/A   Overcast
1:53 PM 39.0 °F 33.4 °F 21.0 °F 49% 29.90 in 10.0 mi NNW 8.1 mph - N/A   Mostly Cloudy
2:53 PM 39.0 °F 36.8 °F 21.0 °F 49% 29.90 in 10.0 mi Variable 3.5 mph - N/A   Clear
3:53 PM 36.0 °F 30.3 °F 24.1 °F 62% 29.91 in 10.0 mi West 6.9 mph - N/A   Partly Cloudy
4:53 PM 33.1 °F 26.1 °F 25.0 °F 72% 29.95 in 10.0 mi NW 8.1 mph - N/A   Clear
6:53 PM 28.0 °F - 23.0 °F 81% 29.99 in 10.0 mi Calm Calm - N/A   Clear
7:53 PM 23.0 °F 17.0 °F 19.9 °F 88% 30.02 in 10.0 mi SSE 4.6 mph - N/A   Clear
8:53 PM 26.1 °F - 21.9 °F 84% 30.00 in 10.0 mi Calm Calm - N/A   Clear
9:53 PM 23.0 °F 15.8 °F 19.9 °F 88% 29.99 in 10.0 mi SSE 5.8 mph - N/A   Clear
10:53 PM 19.0 °F 11.1 °F 16.0 °F 88% 29.96 in 10.0 mi East 5.8 mph - N/A   Clear
11:53 PM 21.0 °F 10.6 °F 18.0 °F 88% 29.92 in 10.0 mi SE 9.2 mph - N/A   Mostly Cloudy